Time,TemperatureF,DewpointF,PressureIn,WindDirection,WindDirectionDegrees,WindSpeedMPH,WindSpeedGustMPH,Humidity,HourlyPrecipIn,Conditions,Clouds,dailyrainin,SoftwareType,DateUTC
2013-06-30 00:08:00,51.6,41.0,29.87,WSW,250,0.0,1.0,68,0.00,,,0.00,weatherlink.com 1.10,2013-06-30 06:08:00,
2013-06-30 00:24:00,50.7,42.0,29.86,WSW,250,0.0,0.0,71,0.00,,,0.00,weatherlink.com 1.10,2013-06-30 06:24:00,
2013-06-30 00:39:00,50.1,42.0,29.87,WSW,250,1.0,1.0,73,0.00,,,0.00,weatherlink.com 1.10,2013-06-30 06:39:00,
2013-06-30 00:54:00,49.9,42.0,29.87,WSW,250,0.0,1.0,74,0.00,,,0.00,weatherlink.com 1.10,2013-06-30 06:54:00,
2013-06-30 01:09:00,49.6,42.0,29.87,WSW,250,0.0,2.0,74,0.00,,,0.00,weatherlink.com 1.10,2013-06-30 07:09:00,
2013-06-30 01:24:00,49.2,42.0,29.87,WSW,250,0.0,0.0,75,0.00,,,0.00,weatherlink.com 1.10,2013-06-30 07:24:00,
2013-06-30 01:39:00,48.0,40.0,29.88,WSW,250,0.0,0.0,75,0.00,,,0.00,weatherlink.com 1.10,2013-06-30 07:39:00,
2013-06-30 01:54:00,47.2,41.0,29.87,WSW,250,0.0,0.0,78,0.00,,,0.00,weatherlink.com 1.10,2013-06-30 07:54:00,
2013-06-30 02:09:00,47.1,41.0,29.87,WSW,250,0.0,0.0,79,0.00,,,0.00,weatherlink.com 1.10,2013-06-30 08:09:00,
2013-06-30 02:24:00,47.0,40.0,29.87,WSW,250,0.0,2.0,78,0.00,,,0.00,weatherlink.com 1.10,2013-06-30 08:24:00,
2013-06-30 02:40:00,47.0,40.0,29.86,WSW,250,0.0,0.0,78,0.00,,,0.00,weatherlink.com 1.10,2013-06-30 08:40:00,
2013-06-30 02:54:00,47.4,41.0,29.86,WSW,250,1.0,2.0,79,0.00,,,0.00,weatherlink.com 1.10,2013-06-30 08:54:00,
2013-06-30 03:09:00,47.8,41.0,29.85,WSW,250,0.0,0.0,78,0.00,,,0.00,weatherlink.com 1.10,2013-06-30 09:09:00,
2013-06-30 03:24:00,48.1,41.0,29.85,WSW,250,0.0,0.0,76,0.00,,,0.00,weatherlink.com 1.10,2013-06-30 09:24:00,
2013-06-30 03:39:00,48.5,41.0,29.84,SE,144,1.0,3.0,76,0.00,,,0.00,weatherlink.com 1.10,2013-06-30 09:39:00,
2013-06-30 03:54:00,47.9,41.0,29.84,SSE,160,1.0,3.0,77,0.00,,,0.00,weatherlink.com 1.10,2013-06-30 09:54:00,
2013-06-30 04:09:00,47.2,41.0,29.84,SSE,159,0.0,2.0,78,0.00,,,0.00,weatherlink.com 1.10,2013-06-30 10:09:00,
2013-06-30 04:25:00,47.1,41.0,29.83,SSE,159,0.0,1.0,78,0.00,,,0.00,weatherlink.com 1.10,2013-06-30 10:25:00,
2013-06-30 04:40:00,47.1,41.0,29.84,SSE,159,0.0,1.0,78,0.00,,,0.00,weatherlink.com 1.10,2013-06-30 10:40:00,
2013-06-30 04:55:00,46.7,40.0,29.84,SSE,159,0.0,1.0,78,0.00,,,0.00,weatherlink.com 1.10,2013-06-30 10:55:00,
2013-06-30 05:10:00,46.3,40.0,29.84,SSE,159,0.0,0.0,79,0.00,,,0.00,weatherlink.com 1.10,2013-06-30 11:10:00,
2013-06-30 05:25:00,46.4,41.0,29.84,SSE,159,0.0,0.0,80,0.00,,,0.00,weatherlink.com 1.10,2013-06-30 11:25:00,
2013-06-30 05:40:00,46.9,41.0,29.84,SSE,159,0.0,2.0,80,0.00,,,0.00,weatherlink.com 1.10,2013-06-30 11:40:00,
2013-06-30 05:55:00,47.4,41.0,29.84,SSE,159,0.0,1.0,78,0.00,,,0.00,weatherlink.com 1.10,2013-06-30 11:55:00,
2013-06-30 06:10:00,47.5,41.0,29.83,SSE,159,0.0,0.0,78,0.00,,,0.00,weatherlink.com 1.10,2013-06-30 12:10:00,
2013-06-30 06:25:00,48.1,41.0,29.84,SSE,159,0.0,1.0,77,0.00,,,0.00,weatherlink.com 1.10,2013-06-30 12:25:00,
2013-06-30 06:40:00,47.6,40.0,29.84,NW,311,3.0,5.0,75,0.00,,,0.00,weatherlink.com 1.10,2013-06-30 12:40:00,
2013-06-30 06:55:00,46.6,41.0,29.84,West,279,1.0,5.0,81,0.00,,,0.00,weatherlink.com 1.10,2013-06-30 12:55:00,
2013-06-30 07:10:00,47.0,42.0,29.84,West,272,0.0,4.0,82,0.00,,,0.00,weatherlink.com 1.10,2013-06-30 13:10:00,
2013-06-30 07:25:00,48.7,41.0,29.84,West,272,2.0,3.0,76,0.00,,,0.00,weatherlink.com 1.10,2013-06-30 13:25:00,
2013-06-30 07:40:00,51.1,43.0,29.85,West,272,0.0,3.0,73,0.00,,,0.00,weatherlink.com 1.10,2013-06-30 13:40:00,
2013-06-30 07:55:00,53.6,43.0,29.84,West,272,0.0,1.0,68,0.00,,,0.00,weatherlink.com 1.10,2013-06-30 13:55:00,
2013-06-30 08:11:00,56.7,44.0,29.84,ESE,115,0.0,1.0,62,0.00,,,0.00,weatherlink.com 1.10,2013-06-30 14:11:00,
2013-06-30 08:26:00,58.4,43.0,29.84,ESE,116,0.0,1.0,58,0.00,,,0.00,weatherlink.com 1.10,2013-06-30 14:26:00,
2013-06-30 08:41:00,60.5,44.0,29.84,North,5,0.0,2.0,55,0.00,,,0.00,weatherlink.com 1.10,2013-06-30 14:41:00,
2013-06-30 08:56:00,61.5,44.0,29.84,NNE,19,0.0,3.0,54,0.00,,,0.00,weatherlink.com 1.10,2013-06-30 14:56:00,
2013-06-30 09:10:00,62.2,45.0,29.83,NNE,30,0.0,5.0,54,0.00,,,0.00,weatherlink.com 1.10,2013-06-30 15:10:00,
2013-06-30 09:25:00,64.1,45.0,29.83,NE,34,2.0,3.0,50,0.00,,,0.00,weatherlink.com 1.10,2013-06-30 15:25:00,
2013-06-30 09:40:00,64.8,45.0,29.82,North,350,1.0,3.0,49,0.00,,,0.00,weatherlink.com 1.10,2013-06-30 15:40:00,
2013-06-30 09:55:00,65.6,45.0,29.81,NW,313,0.0,4.0,48,0.00,,,0.00,weatherlink.com 1.10,2013-06-30 15:55:00,
2013-06-30 10:10:00,67.7,45.0,29.81,WNW,298,0.0,5.0,44,0.00,,,0.00,weatherlink.com 1.10,2013-06-30 16:10:00,
2013-06-30 10:26:00,69.0,43.0,29.81,NW,311,0.0,6.0,39,0.00,,,0.00,weatherlink.com 1.10,2013-06-30 16:26:00,
2013-06-30 10:41:00,70.4,43.0,29.80,NNE,28,0.0,5.0,38,0.00,,,0.00,weatherlink.com 1.10,2013-06-30 16:41:00,
2013-06-30 10:56:00,71.6,43.0,29.80,NNW,346,0.0,9.0,36,0.00,,,0.00,weatherlink.com 1.10,2013-06-30 16:56:00,
2013-06-30 11:11:00,71.5,40.0,29.80,WSW,252,0.0,10.0,32,0.00,,,0.00,weatherlink.com 1.10,2013-06-30 17:11:00,
2013-06-30 11:26:00,72.7,39.0,29.80,NNE,25,0.0,12.0,29,0.00,,,0.00,weatherlink.com 1.10,2013-06-30 17:26:00,
2013-06-30 11:41:00,74.0,39.0,29.79,NW,309,4.0,9.0,28,0.00,,,0.00,weatherlink.com 1.10,2013-06-30 17:41:00,
2013-06-30 11:56:00,74.8,38.0,29.79,NW,308,1.0,9.0,26,0.00,,,0.00,weatherlink.com 1.10,2013-06-30 17:56:00,
2013-06-30 12:12:00,74.1,39.0,29.78,NNE,25,0.0,16.0,28,0.00,,,0.00,weatherlink.com 1.10,2013-06-30 18:12:00,
2013-06-30 12:27:00,74.6,35.0,29.78,West,272,3.0,15.0,24,0.00,,,0.00,weatherlink.com 1.10,2013-06-30 18:27:00,
2013-06-30 12:42:00,77.2,33.0,29.78,WNW,283,5.0,13.0,20,0.00,,,0.00,weatherlink.com 1.10,2013-06-30 18:42:00,
2013-06-30 12:57:00,76.6,34.0,29.77,NW,324,3.0,14.0,21,0.00,,,0.00,weatherlink.com 1.10,2013-06-30 18:57:00,
2013-06-30 13:11:00,75.7,34.0,29.77,WNW,303,7.0,14.0,22,0.00,,,0.00,weatherlink.com 1.10,2013-06-30 19:11:00,
2013-06-30 13:26:00,77.0,34.0,29.76,WNW,296,7.0,10.0,21,0.00,,,0.00,weatherlink.com 1.10,2013-06-30 19:26:00,
2013-06-30 13:42:00,73.7,34.0,29.76,North,355,4.0,13.0,23,0.00,,,0.00,weatherlink.com 1.10,2013-06-30 19:42:00,
2013-06-30 13:56:00,73.9,35.0,29.75,North,355,4.0,11.0,24,0.00,,,0.00,weatherlink.com 1.10,2013-06-30 19:56:00,
2013-06-30 14:12:00,73.2,34.0,29.76,North,355,1.0,15.0,24,0.00,,,0.00,weatherlink.com 1.10,2013-06-30 20:12:00,
2013-06-30 14:27:00,72.2,35.0,29.75,NW,315,5.0,15.0,26,0.00,,,0.00,weatherlink.com 1.10,2013-06-30 20:27:00,
2013-06-30 14:42:00,71.3,41.0,29.75,NNW,343,4.0,10.0,34,0.00,,,0.00,weatherlink.com 1.10,2013-06-30 20:42:00,
2013-06-30 14:57:00,63.7,51.0,29.75,ENE,67,4.0,18.0,63,0.00,,,0.00,weatherlink.com 1.10,2013-06-30 20:57:00,
2013-06-30 15:12:00,55.2,49.0,29.81,NNE,25,0.0,15.0,79,0.31,,,0.31,weatherlink.com 1.10,2013-06-30 21:12:00,
2013-06-30 15:27:00,53.3,49.0,29.80,ESE,102,4.0,15.0,85,0.33,,,0.33,weatherlink.com 1.10,2013-06-30 21:27:00,
2013-06-30 15:42:00,55.9,52.0,29.80,NE,43,6.0,14.0,86,0.33,,,0.33,weatherlink.com 1.10,2013-06-30 21:42:00,
2013-06-30 15:57:00,56.4,50.0,29.82,NE,46,4.0,19.0,78,0.33,,,0.33,weatherlink.com 1.10,2013-06-30 21:57:00,
2013-06-30 16:13:00,55.9,48.0,29.84,NNE,13,1.0,12.0,74,0.01,,,0.33,weatherlink.com 1.10,2013-06-30 22:13:00,
2013-06-30 16:28:00,55.9,49.0,29.83,NE,45,1.0,8.0,77,0.00,,,0.33,weatherlink.com 1.10,2013-06-30 22:28:00,
2013-06-30 16:43:00,55.2,48.0,29.83,East,96,0.0,5.0,78,0.00,,,0.33,weatherlink.com 1.10,2013-06-30 22:43:00,
2013-06-30 16:58:00,53.9,48.0,29.81,ESE,117,0.0,9.0,81,0.01,,,0.34,weatherlink.com 1.10,2013-06-30 22:58:00,
2013-06-30 17:12:00,53.9,48.0,29.80,ESE,105,8.0,8.0,81,0.01,,,0.34,weatherlink.com 1.10,2013-06-30 23:12:00,
2013-06-30 17:27:00,55.5,49.0,29.81,ESE,112,0.0,8.0,79,0.01,,,0.34,weatherlink.com 1.10,2013-06-30 23:27:00,
2013-06-30 17:42:00,56.9,48.0,29.83,SW,215,0.0,6.0,72,0.01,,,0.34,weatherlink.com 1.10,2013-06-30 23:42:00,
2013-06-30 17:57:00,56.4,49.0,29.84,SW,214,0.0,0.0,76,0.00,,,0.34,weatherlink.com 1.10,2013-06-30 23:57:00,
2013-06-30 18:13:00,56.2,49.0,29.80,SW,225,0.0,3.0,76,0.00,,,0.34,weatherlink.com 1.10,2013-07-01 00:13:00,
2013-06-30 18:30:00,56.0,49.0,29.79,WSW,258,0.0,6.0,77,0.00,,,0.34,weatherlink.com 1.10,2013-07-01 00:30:00,
2013-06-30 18:43:00,55.6,49.0,29.80,WSW,243,1.0,7.0,79,0.00,,,0.34,weatherlink.com 1.10,2013-07-01 00:43:00,
2013-06-30 18:58:00,55.0,49.0,29.78,SSW,194,1.0,5.0,79,0.00,,,0.34,weatherlink.com 1.10,2013-07-01 00:58:00,
2013-06-30 19:12:00,54.9,49.0,29.78,SSW,207,5.0,8.0,80,0.00,,,0.34,weatherlink.com 1.10,2013-07-01 01:12:00,
2013-06-30 19:27:00,55.5,49.0,29.79,South,186,0.0,4.0,78,0.00,,,0.34,weatherlink.com 1.10,2013-07-01 01:27:00,
2013-06-30 19:42:00,56.0,49.0,29.80,East,101,1.0,3.0,76,0.00,,,0.34,weatherlink.com 1.10,2013-07-01 01:42:00,
2013-06-30 19:57:00,55.6,48.0,29.82,East,98,0.0,6.0,75,0.00,,,0.34,weatherlink.com 1.10,2013-07-01 01:57:00,
2013-06-30 20:12:00,55.2,48.0,29.83,East,96,0.0,1.0,77,0.00,,,0.34,weatherlink.com 1.10,2013-07-01 02:12:00,
2013-06-30 20:27:00,54.5,48.0,29.84,ESE,111,0.0,3.0,80,0.00,,,0.34,weatherlink.com 1.10,2013-07-01 02:27:00,
2013-06-30 20:42:00,53.8,48.0,29.85,ESE,115,0.0,0.0,82,0.00,,,0.34,weatherlink.com 1.10,2013-07-01 02:42:00,
2013-06-30 20:57:00,53.0,48.0,29.86,ESE,115,0.0,0.0,82,0.00,,,0.34,weatherlink.com 1.10,2013-07-01 02:57:00,
2013-06-30 21:12:00,52.7,48.0,29.87,ESE,115,0.0,0.0,84,0.00,,,0.34,weatherlink.com 1.10,2013-07-01 03:12:00,
2013-06-30 21:27:00,52.7,48.0,29.88,ESE,115,0.0,0.0,83,0.00,,,0.34,weatherlink.com 1.10,2013-07-01 03:27:00,
2013-06-30 21:42:00,52.9,49.0,29.90,NNE,24,1.0,6.0,86,0.00,,,0.34,weatherlink.com 1.10,2013-07-01 03:42:00,
2013-06-30 21:57:00,51.9,46.0,29.84,South,190,0.0,7.0,81,0.01,,,0.35,weatherlink.com 1.10,2013-07-01 03:57:00,
2013-06-30 22:12:00,51.5,48.0,29.86,South,190,0.0,1.0,86,0.01,,,0.35,weatherlink.com 1.10,2013-07-01 04:12:00,
2013-06-30 22:27:00,51.2,46.0,29.87,SSW,201,0.0,0.0,83,0.01,,,0.35,weatherlink.com 1.10,2013-07-01 04:27:00,
2013-06-30 22:42:00,50.8,46.0,29.88,SW,217,0.0,3.0,84,0.01,,,0.35,weatherlink.com 1.10,2013-07-01 04:42:00,
2013-06-30 22:57:00,50.7,46.0,29.88,SW,226,1.0,5.0,85,0.00,,,0.35,weatherlink.com 1.10,2013-07-01 04:57:00,
2013-06-30 23:13:00,49.7,46.0,29.88,WSW,237,0.0,0.0,86,0.00,,,0.35,weatherlink.com 1.10,2013-07-01 05:13:00,
2013-06-30 23:28:00,49.6,45.0,29.88,WSW,237,0.0,1.0,85,0.00,,,0.35,weatherlink.com 1.10,2013-07-01 05:28:00,
2013-06-30 23:43:00,49.9,45.0,29.87,WSW,237,0.0,0.0,84,0.00,,,0.35,weatherlink.com 1.10,2013-07-01 05:43:00,
2013-06-30 23:58:00,50.5,46.0,29.88,WSW,237,0.0,0.0,83,0.00,,,0.35,weatherlink.com 1.10,2013-07-01 05:58:00,